{"data":{"norad_id":48362,"intl_designator":"2021-038K","name":"STARLINK-2578","alt_names":[],"object_type":"PAYLOAD","status":"ACTIVE","operator":null,"country":"US","launch_date":"2021-05-04","launch_site_code":"AFETR","launch_vehicle":null,"mission":null,"orbit_class":"UNKNOWN","rcs_meters":null,"size_class":null,"mass_kg":null,"dimensions":null,"purposes":["comms"],"wikipedia_slug":null,"has_3d_model":false,"image_url":null,"decayed_at":null,"tle_current":{"epoch":"2026-09-19T11:14:08.582496Z","epoch_age_seconds":122798,"freshness":"FRESH","line1":"1 48362U 21038K   26262.46815489 -.00006827  00000+0 -20855-3 0  9997","line2":"2 48362  53.1603 176.3233 0001324  87.1709 272.9444 15.31681309296770","mean_motion":15.31681309,"eccentricity":0.0001324,"inclination_deg":53.1603,"raan_deg":176.3233,"arg_perigee_deg":87.1709,"mean_anomaly_deg":272.9444,"bstar":-0.00020855,"rev_number":29677,"period_min":94.014335197453,"perigee_km":469.88891399948,"apogee_km":471.7025113818,"semimajor_km":6848.9327126906,"source":"CELESTRAK","updated_at":"2026-09-20T09:00:38.940722Z"}}}